When you browse on this site, cookies collect data to enhance your experience and personalize the content and advertising you see.
Visit our Privacy Policy to learn more. By continuing to use the site, you agree to this use of cookies and data.
  • In Czech Republic
  • List of Countries
  • For 7 days
  • Water Temperature
  • Satellite Maps
  • Weather Map
  • Weather Widgets
  • user-avatar
    Login

    Hourly Weather Pontypridd

    Today, 17 January, Thursday

    Time Temperature Precipitation Wind Pressure Humidity
    00:00 +2°C° 0 mm 6 mps 742 mmHg 89%
    01:00 +2°C° 0 mm 6 mps 742 mmHg 88%
    02:00 +2°C° 0 mm 6 mps 743 mmHg 87%
    03:00 +1°C° 0 mm 6 mps 743 mmHg 85%
    04:00 +1°C° 0 mm 6 mps 744 mmHg 85%
    05:00 +1°C° 0 mm 6 mps 745 mmHg 85%
    06:00 +1°C° 0 mm 6 mps 746 mmHg 85%
    07:00 -1°C° 0 mm 6 mps 747 mmHg 82%
    08:00 0°C° 0 mm 5 mps 748 mmHg 79%
    09:00 -1°C° 0 mm 5 mps 749 mmHg 76%
    10:00 -1°C° 0 mm 6 mps 750 mmHg 71%
    11:00 +1°C° 0 mm 6 mps 751 mmHg 65%
    12:00 +2°C° 0 mm 6 mps 751 mmHg 59%
    13:00 +2°C° 0 mm 5 mps 752 mmHg 60%
    14:00 +3°C° 0 mm 4 mps 752 mmHg 61%
    15:00 +3°C° 0 mm 4 mps 752 mmHg 62%
    16:00 +3°C° 0 mm 3 mps 753 mmHg 64%
    17:00 +3°C° 0 mm 2 mps 753 mmHg 66%
    18:00 +2°C° 0 mm 2 mps 753 mmHg 67%
    19:00 +3°C° 0 mm 1 mps 753 mmHg 67%
    20:00 +3°C° 0 mm 1 mps 753 mmHg 67%
    21:00 +2°C° 0 mm 0 mps 753 mmHg 67%
    22:00 +3°C° 0 mm 1 mps 754 mmHg 68%
    23:00 +2°C° 0 mm 2 mps 754 mmHg 68%

    Tomorrow, 18 January, Friday

    Time Temperature Precipitation Wind Pressure Humidity
    00:00 +2°C° 0 mm 2 mps 754 mmHg 69%
    01:00 +1°C° 0 mm 3 mps 753 mmHg 69%
    02:00 +1°C° 0 mm 3 mps 753 mmHg 70%
    03:00 0°C° 0 mm 4 mps 752 mmHg 71%
    04:00 0°C° 0 mm 4 mps 752 mmHg 71%
    05:00 0°C° 0 mm 4 mps 751 mmHg 71%
    06:00 0°C° 0 mm 5 mps 751 mmHg 70%
    07:00 +1°C° 0 mm 5 mps 750 mmHg 71%
    08:00 +1°C° 0 mm 6 mps 750 mmHg 71%
    09:00 +2°C° 0 mm 6 mps 750 mmHg 72%
    10:00 +2°C° 0.4 mm 7 mps 749 mmHg 74%
    11:00 +1°C° 0.4 mm 8 mps 749 mmHg 76%
    12:00 +2°C° 0.4 mm 8 mps 749 mmHg 79%
    13:00 +1°C° 0.7 mm 9 mps 748 mmHg 82%
    14:00 +1°C° 0.7 mm 9 mps 747 mmHg 86%
    15:00 +1°C° 0.7 mm 9 mps 747 mmHg 89%
    16:00 +1°C° 0.3 mm 9 mps 746 mmHg 90%
    17:00 +1°C° 0.3 mm 8 mps 746 mmHg 90%
    18:00 +2°C° 0.3 mm 8 mps 746 mmHg 91%
    19:00 +2°C° 0.2 mm 8 mps 746 mmHg 92%
    20:00 +3°C° 0.2 mm 7 mps 746 mmHg 93%
    21:00 +4°C° 0.2 mm 6 mps 745 mmHg 94%
    22:00 +5°C° 0.4 mm 5 mps 745 mmHg 93%
    23:00 +5°C° 0.4 mm 4 mps 745 mmHg 92%

    Day after tomorrow, 19 January, Saturday

    Time Temperature Precipitation Wind Pressure Humidity
    00:00 +5°C° 0.4 mm 3 mps 745 mmHg 91%
    01:00 +5°C° 0.3 mm 3 mps 744 mmHg 91%
    02:00 +5°C° 0.3 mm 3 mps 744 mmHg 90%
    03:00 +5°C° 0.3 mm 4 mps 744 mmHg 89%
    04:00 +5°C° 0.1 mm 3 mps 744 mmHg 90%
    05:00 +4°C° 0.1 mm 3 mps 743 mmHg 90%
    06:00 +4°C° 0.1 mm 3 mps 743 mmHg 90%
    07:00 +5°C° 0 mm 2 mps 743 mmHg 90%
    08:00 +5°C° 0 mm 2 mps 743 mmHg 89%
    09:00 +5°C° 0 mm 2 mps 744 mmHg 89%
    10:00 +6°C° 0 mm 2 mps 744 mmHg 86%
    11:00 +7°C° 0 mm 2 mps 744 mmHg 83%
    12:00 +8°C° 0 mm 2 mps 744 mmHg 81%
    13:00 +8°C° 0 mm 2 mps 744 mmHg 82%
    14:00 +8°C° 0 mm 2 mps 744 mmHg 83%
    15:00 +8°C° 0 mm 2 mps 744 mmHg 85%
    16:00 +7°C° 0 mm 2 mps 744 mmHg 87%
    17:00 +7°C° 0 mm 2 mps 744 mmHg 89%
    18:00 +6°C° 0 mm 2 mps 745 mmHg 91%
    19:00 +5°C° 0 mm 2 mps 745 mmHg 92%
    20:00 +5°C° 0 mm 2 mps 745 mmHg 93%
    21:00 +5°C° 0 mm 2 mps 746 mmHg 93%
    22:00 +4°C° 0 mm 3 mps 746 mmHg 94%
    23:00 +4°C° 0 mm 3 mps 746 mmHg 94%

    20 January, Sunday

    Time Temperature Precipitation Wind Pressure Humidity
    00:00 +4°C° 0 mm 3 mps 747 mmHg 94%
    01:00 +5°C° 0 mm 3 mps 747 mmHg 94%
    02:00 +5°C° 0 mm 4 mps 747 mmHg 94%
    03:00 +5°C° 0 mm 4 mps 748 mmHg 94%
    04:00 +5°C° 0.1 mm 5 mps 748 mmHg 92%
    05:00 +4°C° 0.1 mm 6 mps 749 mmHg 89%
    06:00 +4°C° 0.1 mm 7 mps 749 mmHg 87%
    07:00 +4°C° 0 mm 7 mps 750 mmHg 86%
    08:00 +3°C° 0 mm 7 mps 751 mmHg 86%
    09:00 +3°C° 0 mm 7 mps 752 mmHg 85%
    10:00 +3°C° 0 mm 7 mps 753 mmHg 82%
    11:00 +4°C° 0 mm 8 mps 753 mmHg 78%
    12:00 +4°C° 0 mm 8 mps 754 mmHg 75%
    13:00 +4°C° 0 mm 8 mps 755 mmHg 73%
    14:00 +4°C° 0 mm 8 mps 755 mmHg 72%
    15:00 +4°C° 0 mm 7 mps 755 mmHg 70%
    16:00 +3°C° 0 mm 7 mps 756 mmHg 72%
    17:00 +2°C° 0 mm 6 mps 757 mmHg 75%
    18:00 +1°C° 0 mm 6 mps 757 mmHg 77%
    19:00 +1°C° 0 mm 5 mps 758 mmHg 78%
    20:00 +1°C° 0 mm 5 mps 759 mmHg 79%
    21:00 +1°C° 0 mm 5 mps 759 mmHg 80%
    22:00 0°C° 0 mm 4 mps 759 mmHg 80%
    23:00 0°C° 0 mm 4 mps 759 mmHg 80%

    21 January, Monday

    Time Temperature Precipitation Wind Pressure Humidity
    00:00 0°C° 0 mm 4 mps 760 mmHg 80%
    01:00 +1°C° 0 mm 3 mps 759 mmHg 81%
    02:00 +1°C° 0 mm 3 mps 759 mmHg 82%
    03:00 0°C° 0 mm 3 mps 759 mmHg 82%
    04:00 0°C° 0 mm 3 mps 759 mmHg 83%
    05:00 0°C° 0 mm 3 mps 759 mmHg 83%
    06:00 +1°C° 0 mm 2 mps 759 mmHg 83%
    07:00 +1°C° 0 mm 2 mps 758 mmHg 83%
    08:00 +2°C° 0 mm 2 mps 758 mmHg 82%
    09:00 +3°C° 0 mm 1 mps 758 mmHg 82%
    10:00 +2°C° 0 mm 3 mps 757 mmHg 78%
    11:00 +3°C° 0 mm 4 mps 756 mmHg 74%
    12:00 +3°C° 0 mm 5 mps 755 mmHg 70%
    13:00 +3°C° 0.1 mm 6 mps 754 mmHg 71%
    14:00 +3°C° 0.1 mm 6 mps 752 mmHg 72%
    15:00 +3°C° 0.1 mm 6 mps 751 mmHg 73%
    16:00 +3°C° 0.6 mm 7 mps 749 mmHg 77%
    17:00 +2°C° 0.6 mm 8 mps 747 mmHg 82%
    18:00 +2°C° 0.6 mm 10 mps 745 mmHg 86%
    19:00 +2°C° 2 mm 9 mps 744 mmHg 86%
    20:00 +2°C° 2 mm 9 mps 743 mmHg 86%
    21:00 +2°C° 2 mm 9 mps 742 mmHg 87%
    22:00 +1°C° 0.2 mm 8 mps 741 mmHg 85%
    23:00 +2°C° 0.2 mm 7 mps 741 mmHg 83%

    22 January, Tuesday

    Time Temperature Precipitation Wind Pressure Humidity
    00:00 +1°C° 0.2 mm 6 mps 741 mmHg 81%
    01:00 +1°C° 0 mm 6 mps 740 mmHg 82%
    02:00 -1°C° 0 mm 6 mps 740 mmHg 83%
    03:00 -1°C° 0 mm 6 mps 740 mmHg 84%
    04:00 -1°C° 0 mm 6 mps 740 mmHg 84%
    05:00 -1°C° 0 mm 6 mps 740 mmHg 84%
    06:00 -1°C° 0 mm 6 mps 740 mmHg 85%
    07:00 -1°C° 0 mm 6 mps 741 mmHg 84%
    08:00 -1°C° 0 mm 6 mps 741 mmHg 83%
    09:00 0°C° 0 mm 7 mps 741 mmHg 82%
    10:00 0°C° 0 mm 7 mps 741 mmHg 79%
    11:00 +2°C° 0 mm 7 mps 741 mmHg 77%
    12:00 +3°C° 0 mm 7 mps 741 mmHg 74%
    13:00 +3°C° 0.1 mm 7 mps 741 mmHg 74%
    14:00 +3°C° 0.1 mm 7 mps 741 mmHg 74%
    15:00 +2°C° 0.1 mm 7 mps 741 mmHg 74%
    16:00 +2°C° 0 mm 6 mps 741 mmHg 77%
    17:00 +1°C° 0 mm 6 mps 741 mmHg 79%
    18:00 0°C° 0 mm 5 mps 741 mmHg 81%
    19:00 0°C° 0 mm 5 mps 741 mmHg 81%
    20:00 0°C° 0 mm 4 mps 742 mmHg 81%
    21:00 -1°C° 0 mm 4 mps 742 mmHg 81%
    22:00 -1°C° 0 mm 4 mps 742 mmHg 81%
    23:00 -1°C° 0 mm 4 mps 742 mmHg 81%
    Show more